Mason City, IA

7:04 PM CST on February 24, 2018 (GMT -0600)
Mason City Municipal

Weather History for KMCW - March, 2013

Change the Weather History Date:

Monday, March 11, 2013

  Actual Average Record
Temperature  
Mean Temperature 24 °F -  
Max Temperature 30 °F - 67 °F (2016)
Min Temperature 18 °F - -25 °F (1948)
Degree Days  
Heating Degree Days 41    
Month to date heating degree days 466  
Since 1 July heating degree days 6027  
Cooling Degree Days 0 0  
Month to date cooling degree days 0 0  
Year to date cooling degree days 0 0  
Moisture  
Dew Point 22 °F    
Average Humidity 83    
Maximum Humidity 92    
Minimum Humidity 74    
Precipitation  
Precipitation 0.05 in - 1.01 in (1990)
Month to date precipitation 1.37  
Year to date precipitation 3.04  
Snow  
Snow 7.50 in - - ()
Month to date snowfall 20.0  
Since 1 July snowfall 42.0  
Snow Depth 12.00 in    
Sea Level Pressure  
Sea Level Pressure 29.77 in    
Wind  
Wind Speed 17 mph (NNW)    
Max Wind Speed 25 mph    
Max Gust Speed 30 mph    
Visibility 5 miles    
Events Fog , Snow    
T = Trace of Precipitation, MM = Missing Value Source: NWS Daily Summary

Daily Weather History Graph

Daily Weather History Graph

Search for Another Location

Airport or City:

Trip Planner

Search our weather history database for the weather conditions in past years. The results will help you decide how hot, cold, wet, or windy it might be!

Date:

Astronomy

Mar. 11, 2013 Rise Set
Actual Time 7:31 AM CDT 7:15 PM CDT
Civil Twilight 7:03 AM CDT 7:43 PM CDT
Nautical Twilight 6:30 AM CDT 8:16 PM CDT
Astronomical Twilight 5:57 AM CDT 8:50 PM CDT
Moon 7:05 AM CDT (3/11) 7:29 PM CDT (3/11)
Length of Visible Light 12h 39m
Length of Day
11h 43m
Waning Crescent, 0% of the Moon is Illuminated
Mar 11
Waning Crescent
Mar 11
New
Mar 19
First Quarter
Mar 27
Full
Apr 2
Last Quarter

Hourly Weather History & Observations

Time (CDT) Temp. Windchill Dew Point Humidity Pressure Visibility Wind Dir Wind Speed Gust Speed Precip Events Conditions
12:29 AM 30.2 °F 17.1 °F 26.6 °F 86% 29.76 in 1.0 mi North 21.9 mph - 0.01 in   Overcast
12:44 AM 30.2 °F 16.8 °F 26.6 °F 86% 29.76 in 1.2 mi North 23.0 mph - 0.02 in   Overcast
12:53 AM 30.0 °F 17.2 °F 27.0 °F 88% 29.78 in 1.2 mi North 20.7 mph - 0.02 in   Overcast
1:27 AM 28.4 °F 14.7 °F 26.6 °F 93% 29.76 in 0.8 mi North 21.9 mph - N/A   Mist
1:40 AM 28.4 °F 15.1 °F 26.6 °F 93% 29.76 in 1.0 mi North 20.7 mph - N/A   Mist
1:51 AM 28.4 °F 14.7 °F 26.6 °F 93% 29.75 in 1.2 mi North 21.9 mph - 0.01 in   Overcast
1:53 AM 28.9 °F 15.8 °F 26.1 °F 89% 29.78 in 1.2 mi North 20.7 mph - 0.01 in   Overcast
2:21 AM 28.4 °F 15.4 °F 26.6 °F 93% 29.75 in 1.0 mi North 19.6 mph - N/A   Mist
2:53 AM 28.9 °F 16.1 °F 26.1 °F 89% 29.78 in 1.5 mi NNW 19.6 mph - N/A   Overcast
3:03 AM 28.4 °F 16.2 °F 26.6 °F 93% 29.75 in 1.5 mi NNW 17.3 mph - N/A   Overcast
3:17 AM 28.4 °F 15.8 °F 24.8 °F 86% 29.75 in 2.5 mi NNW 18.4 mph - N/A   Overcast
3:28 AM 28.4 °F 15.8 °F 24.8 °F 86% 29.74 in 3.0 mi NNW 18.4 mph - N/A   Overcast
3:35 AM 28.4 °F 15.4 °F 24.8 °F 86% 29.74 in 3.0 mi NNW 19.6 mph - N/A   Overcast
3:53 AM 28.0 °F 14.9 °F 25.0 °F 88% 29.76 in 2.5 mi NNW 19.6 mph - N/A   Overcast
4:25 AM 28.4 °F 16.2 °F 24.8 °F 86% 29.73 in 1.8 mi NNW 17.3 mph - N/A   Overcast
4:35 AM 28.4 °F 16.6 °F 24.8 °F 86% 29.72 in 2.0 mi NNW 16.1 mph - N/A   Overcast
4:48 AM 28.4 °F 16.2 °F 24.8 °F 86% 29.72 in 4.0 mi NNW 17.3 mph - N/A   Overcast
4:53 AM 28.4 °F 16.6 °F 24.8 °F 86% 29.72 in 4.0 mi NNW 16.1 mph - N/A   Overcast
5:03 AM 26.6 °F 14.3 °F 24.8 °F 93% 29.73 in 1.8 mi NNW 16.1 mph - N/A   Overcast
5:09 AM 26.6 °F 13.8 °F 24.8 °F 93% 29.72 in 0.8 mi NNW 17.3 mph - 0.01 in   Overcast
5:26 AM 26.6 °F 13.4 °F 24.8 °F 93% 29.73 in 1.0 mi NNW 18.4 mph - 0.01 in   Mist
5:48 AM 26.6 °F 13.8 °F 24.8 °F 93% 29.73 in 1.2 mi NNW 17.3 mph - 0.01 in   Overcast
5:53 AM 27.0 °F 14.3 °F 24.1 °F 89% 29.76 in 1.2 mi NNW 17.3 mph - 0.01 in   Overcast
6:18 AM 26.6 °F 13.4 °F 24.8 °F 93% 29.73 in 1.2 mi NNW 18.4 mph - N/A   Overcast
6:53 AM 26.1 °F 12.7 °F 23.0 °F 88% 29.77 in 1.0 mi NNW 18.4 mph - N/A   Mist
7:30 AM 26.6 °F 12.7 °F 23.0 °F 86% 29.75 in 1.0 mi NNW 20.7 mph - N/A   Mist
7:42 AM 26.6 °F 13.8 °F 23.0 °F 86% 29.75 in 0.8 mi NNW 17.3 mph - 0.01 in   Mist
7:53 AM 26.1 °F 12.0 °F 23.0 °F 88% 29.78 in 0.2 mi NNW 20.7 mph - 0.01 in Fog Light Freezing Fog
8:00 AM 26.6 °F 13.4 °F 21.2 °F 80% 29.75 in 0.5 mi NNW 18.4 mph - N/A Fog Light Freezing Fog
8:30 AM 26.6 °F 13.1 °F 21.2 °F 80% 29.75 in 1.5 mi NNW 19.6 mph - N/A   Overcast
8:42 AM 26.6 °F 13.1 °F 21.2 °F 80% 29.76 in 3.0 mi NNW 19.6 mph - N/A   Overcast
8:53 AM 26.1 °F 12.0 °F 21.9 °F 84% 29.78 in 9.0 mi NNW 20.7 mph - N/A   Overcast
9:01 AM 26.6 °F 12.7 °F 21.2 °F 80% 29.76 in 10.0 mi NNW 20.7 mph 26.5 mph N/A   Overcast
9:15 AM 24.8 °F 10.7 °F 21.2 °F 86% 29.76 in 0.8 mi NNW 19.6 mph - N/A   Overcast
9:26 AM 26.6 °F 13.1 °F 21.2 °F 80% 29.76 in 4.0 mi NNW 19.6 mph - N/A   Haze
9:53 AM 26.1 °F 11.3 °F 21.0 °F 81% 29.79 in 10.0 mi NNW 23.0 mph - N/A   Overcast
10:53 AM 26.1 °F 12.0 °F 21.0 °F 81% 29.78 in 1.5 mi NW 20.7 mph - N/A   Haze
11:02 AM 24.8 °F 9.6 °F 21.2 °F 86% 29.75 in 10.0 mi NW 23.0 mph - N/A   Overcast
11:53 AM 26.1 °F 11.0 °F 21.0 °F 81% 29.78 in 8.0 mi NNW 24.2 mph - N/A   Mostly Cloudy
12:53 PM 26.1 °F 12.0 °F 21.0 °F 81% 29.78 in 10.0 mi NW 20.7 mph - N/A   Overcast
1:53 PM 27.0 °F 13.9 °F 21.9 °F 81% 29.78 in 10.0 mi NW 18.4 mph - N/A   Overcast
2:53 PM 26.1 °F 13.1 °F 19.9 °F 78% 29.79 in 10.0 mi NW 17.3 mph - N/A   Mostly Cloudy
3:06 PM 26.6 °F 14.3 °F 19.4 °F 74% 29.76 in 10.0 mi NW 16.1 mph - N/A   Overcast
3:17 PM 26.6 °F 14.3 °F 21.2 °F 80% 29.76 in 10.0 mi NW 16.1 mph - N/A   Overcast
3:53 PM 26.1 °F 14.5 °F 19.9 °F 78% 29.79 in 10.0 mi NW 13.8 mph - N/A   Overcast
4:29 PM 26.6 °F 13.8 °F 19.4 °F 74% 29.77 in 10.0 mi NW 17.3 mph - N/A   Overcast
4:53 PM 26.1 °F 12.7 °F 19.0 °F 75% 29.81 in 10.0 mi WNW 18.4 mph - N/A   Overcast
5:53 PM 25.0 °F 10.9 °F 18.0 °F 75% 29.83 in 10.0 mi WNW 19.6 mph - N/A   Mostly Cloudy
6:04 PM 24.8 °F 11.5 °F 17.6 °F 74% 29.79 in 8.0 mi NW 17.3 mph - N/A   Partly Cloudy
6:36 PM 24.8 °F 11.9 °F 17.6 °F 74% 29.80 in 10.0 mi WNW 16.1 mph - N/A   Mostly Cloudy
6:53 PM 25.0 °F 13.1 °F 18.0 °F 75% 29.84 in 10.0 mi NW 13.8 mph - N/A   Mostly Cloudy
7:53 PM 24.1 °F 12.0 °F 17.1 °F 75% 29.86 in 9.0 mi WNW 13.8 mph - 0.00 in Snow Light Snow
8:53 PM 21.9 °F 8.7 °F 15.1 °F 75% 29.89 in 9.0 mi WNW 15.0 mph - 0.00 in Snow Light Snow
9:53 PM 19.0 °F 6.8 °F 14.0 °F 81% 29.91 in 9.0 mi West 11.5 mph - 0.00 in Snow Light Snow
10:53 PM 23.0 °F 11.1 °F 16.0 °F 74% 29.92 in 9.0 mi WNW 12.7 mph - 0.00 in Snow Light Snow
11:53 PM 24.1 °F 13.1 °F 17.1 °F 75% 29.92 in 10.0 mi WNW 11.5 mph - 0.00 in   Overcast